sat.trackr.live / text

‹ back to catalog

STARLINK-37877

NORAD 69335 · 2026-122G

PAYLOAD ACTIVE UNKNOWN

§ Identity

Operator
Country
US
Launch date
2026-06-03
Launch site
AFWTR
Launch vehicle
Mass (kg)
RCS (m²)

Purposes: comms

External: N2YO · Heavens-Above · Gunter

§ Orbital elements

Epoch: 2026-09-20T00:33:20.693952Z

Period
93.91 min
Inclination
97.2839°
Eccentricity
0.0001156
Mean motion
15.33456782 rev/d
Perigee alt
464.7 km
Apogee alt
466.3 km
Semi-major
6,843.6 km
B*
5.1910e-4
RAAN
291.6086°
Arg perigee
72.1400°
Mean anomaly
287.9969°
Rev number
1,672

§ Raw data

STARLINK-378771 69335U 26122G   26263.02315618  .00016727  00000+0  51910-3 0  99952 69335  97.2839 291.6086 0001156  72.1400 287.9969 15.33456782 16725

JSON: /api/v1/satellites/69335 · /tle

For live sub-satellite position, see the globe view (requires WebGL).

§ Visibility from observer

Set your observer location to see the next 7 days of passes ≥ 10°. The values pass through the URL so the page stays shareable.

No JS? Fill the form by hand. The geolocation button needs JavaScript.